CW0133 Weather Reports


time (UTC)temp
C
wind
direction
speed
KPH
gust
KPH
rain 1hr
cm
rain 24hr
cm
rain mn
cm
humidity
%
barometer
mb
20260901075004 26 176 1.6 3.2 0.00 0.00 0.00 76 1016.9
20260901074504 26 176 1.6 6.4 0.00 0.00 0.00 76 1017.0
20260901074024 26 176 1.6 6.4 0.00 0.00 0.00 76 1017.0
20260901073504 26 176 1.6 3.2 0.00 0.00 0.00 75 1016.9
20260901073003 27 176 1.6 6.4 0.00 0.00 0.00 75 1016.9
20260901072504 27 175 3.2 9.7 0.00 0.00 0.00 75 1016.8
20260901072025 27 173 3.2 9.7 0.00 0.00 0.00 75 1016.7
20260901071524 27 171 3.2 8.0 0.00 0.00 0.00 73 1016.7
20260901071025 27 171 1.6 8.0 0.00 0.00 0.00 73 1016.8
20260901070504 27 171 3.2 8.0 0.00 0.00 0.00 73 1016.8
20260901070004 27 171 3.2 8.0 0.00 0.00 0.00 73 1016.7
20260901065504 27 172 3.2 6.4 0.00 0.00 0.00 72 1016.6
20260901065003 27 173 3.2 6.4 0.00 0.00 0.00 72 1016.6
20260901064525 27 173 3.2 8.0 0.00 0.00 0.00 72 1016.5
20260901064003 27 155 3.2 8.0 0.00 0.00 0.00 71 1016.5
20260901063504 27 136 3.2 9.7 0.00 0.00 0.00 71 1016.6
20260901063004 28 130 6.4 9.7 0.00 0.00 0.00 71 1016.6
20260901062504 28 140 3.2 9.7 0.00 0.00 0.00 70 1016.5
20260901062003 28 159 3.2 9.7 0.00 0.00 0.00 70 1016.5
20260901061525 28 147 6.4 12.9 0.00 0.00 0.00 70 1016.4
20260901061004 28 147 6.4 12.9 0.00 0.00 0.00 70 1016.3
20260901060504 28 165 8.0 11.3 0.00 0.00 0.00 70 1016.4
20260901060003 28 167 8.0 12.9 0.00 0.00 0.00 69 1016.2
20260901055503 28 166 6.4 12.9 0.00 0.00 0.00 69 1016.2
20260901055004 28 163 6.4 12.9 0.00 0.00 0.00 68 1016.3
20260901054524 28 166 6.4 12.9 0.00 0.00 0.00 68 1016.3
20260901054004 28 166 8.0 12.9 0.00 0.00 0.00 68 1016.2
20260901053504 28 157 6.4 12.9 0.00 0.00 0.00 68 1016.3
20260901053003 28 152 8.0 12.9 0.00 0.00 0.00 68 1016.2
20260901052524 28 156 8.0 12.9 0.00 0.00 0.00 67 1016.2
20260901052025 28 159 8.0 16.1 0.00 0.00 0.00 67 1016.2
20260901051504 29 155 9.7 20.9 0.00 0.00 0.00 67 1016.1
20260901051025 29 159 9.7 20.9 0.00 0.00 0.00 67 1016.1
20260901050525 29 162 8.0 20.9 0.00 0.00 0.00 67 1016.2
20260901050004 29 163 6.4 12.9 0.00 0.00 0.00 68 1016.2
20260901045504 29 153 8.0 19.3 0.00 0.00 0.00 67 1016.1
20260901045003 30 149 8.0 19.3 0.00 0.00 0.00 67 1016.0
20260901044505 30 147 6.4 12.9 0.00 0.00 0.00 67 1016.1
20260901044004 30 145 8.0 17.7 0.00 0.00 0.00 67 1016.0
20260901043504 30 148 8.0 17.7 0.00 0.00 0.00 67 1016.0
20260901043004 30 154 8.0 16.1 0.00 0.00 0.00 66 1016.0
20260901042503 30 155 8.0 16.1 0.00 0.00 0.00 66 1015.9
20260901042003 30 144 8.0 16.1 0.00 0.00 0.00 66 1016.0
20260901041503 30 142 9.7 17.7 0.00 0.00 0.00 65 1015.9
20260901041004 30 138 8.0 17.7 0.00 0.00 0.00 65 1016.0
20260901040504 30 134 8.0 20.9 0.00 0.00 0.00 65 1016.0
20260901040003 30 135 9.7 20.9 0.00 0.00 0.00 64 1015.9
20260901035503 30 138 9.7 20.9 0.00 0.00 0.00 64 1015.9
20260901035004 30 137 9.7 20.9 0.00 0.00 0.00 64 1015.8
20260901034503 30 134 9.7 27.4 0.00 0.00 0.00 64 1015.8
20260901034024 30 137 9.7 27.4 0.00 0.00 0.00 64 1015.8
20260901033503 30 134 9.7 22.5 0.00 0.00 0.00 63 1015.8
20260901033024 30 131 9.7 22.5 0.00 0.00 0.00 63 1015.8
20260901032524 30 131 9.7 19.3 0.00 0.00 0.00 62 1015.8
20260901032003 30 125 8.0 19.3 0.00 0.00 0.00 61 1015.7
20260901031504 30 121 9.7 17.7 0.00 0.00 0.00 61 1015.6
20260901031003 30 118 9.7 17.7 0.00 0.00 0.00 60 1015.5
20260901030503 30 123 9.7 19.3 0.00 0.00 0.00 59 1015.4
20260901030003 30 122 9.7 22.5 0.00 0.00 0.00 58 1015.4
20260901025503 30 119 9.7 22.5 0.00 0.00 0.00 56 1015.3
20260901025003 30 115 8.0 19.3 0.00 0.00 0.00 54 1015.2
20260901024503 30 112 8.0 17.7 0.00 0.00 0.00 53 1015.0
20260901024003 30 120 9.7 17.7 0.00 0.00 0.00 52 1015.0
20260901023503 30 121 8.0 30.6 0.00 0.00 0.00 51 1014.9
20260901023003 31 116 1.6 30.6 0.00 0.00 0.00 50 1014.8
20260901022503 31 117 0.0 3.2 0.00 0.00 0.00 50 1014.6
20260901022024 31 117 0.0 3.2 0.00 0.00 0.00 50 1014.5
20260901021503 31 117 1.6 3.2 0.00 0.00 0.00 49 1014.4
20260901021003 31 113 3.2 9.7 0.00 0.00 0.00 48 1014.4
20260901020503 31 105 3.2 11.3 0.00 0.00 0.00 48 1014.4
20260901020003 31 108 3.2 11.3 0.00 0.00 0.00 47 1014.3
20260901015503 32 111 3.2 9.7 0.00 0.00 0.00 47 1014.2
20260901015004 32 100 3.2 9.7 0.00 0.00 0.00 46 1014.1
20260901014503 32 93 1.6 9.7 0.00 0.00 0.00 46 1014.0
20260901014003 32 93 1.6 9.7 0.00 0.00 0.00 45 1014.0
20260901013503 33 93 0.0 3.2 0.00 0.00 0.00 44 1013.9
20260901013024 33 93 0.0 3.2 0.00 0.00 0.00 44 1013.9
20260901012503 33 93 1.6 6.4 0.00 0.00 0.00 44 1013.9
20260901012003 34 93 1.6 6.4 0.00 0.00 0.00 42 1013.9
20260901011503 34 93 1.6 9.7 0.00 0.00 0.00 42 1013.8
20260901011003 34 92 1.6 9.7 0.00 0.00 0.00 40 1013.8
20260901010503 35 92 1.6 6.4 0.00 0.00 0.00 39 1013.7
20260901010003 35 94 1.6 9.7 0.00 0.00 0.00 39 1013.6
20260901005503 35 97 3.2 9.7 0.00 0.00 0.00 39 1013.6
20260901005003 35 96 3.2 9.7 0.00 0.00 0.00 39 1013.6
20260901004503 35 85 3.2 17.7 0.00 0.00 0.00 38 1013.5
20260901004003 35 96 8.0 19.3 0.00 0.00 0.00 38 1013.6
20260901003503 35 107 11.3 25.7 0.00 0.00 0.00 38 1013.7
20260901003024 35 106 11.3 25.7 0.00 0.00 0.00 38 1013.6
20260901002503 35 104 11.3 25.7 0.00 0.00 0.00 38 1013.6
20260901002003 36 110 9.7 25.7 0.00 0.00 0.00 38 1013.5
20260901001503 36 117 9.7 19.3 0.00 0.00 0.00 38 1013.5
20260901001004 36 125 8.0 17.7 0.00 0.00 0.00 38 1013.4
20260901000504 36 127 6.4 16.1 0.00 0.00 0.00 39 1013.5
20260901000004 36 135 8.0 12.9 0.00 0.00 0.00 39 1013.4
20260831235504 36 144 8.0 19.3 0.00 0.00 0.00 38 1013.4
20260831235004 36 145 8.0 19.3 0.00 0.00 0.00 39 1013.3
20260831234504 36 137 9.7 16.1 0.00 0.00 0.00 39 1013.4
20260831234004 36 122 9.7 20.9 0.00 0.00 0.00 38 1013.4
20260831233504 37 117 8.0 20.9 0.00 0.00 0.00 38 1013.4
20260831233025 37 109 8.0 17.7 0.00 0.00 0.00 38 1013.3
20260831232525 37 106 8.0 17.7 0.00 0.00 0.00 38 1013.4
20260831232004 37 115 8.0 16.1 0.00 0.00 0.00 37 1013.4
20260831231504 37 113 8.0 19.3 0.00 0.00 0.00 36 1013.4
20260831231025 37 106 8.0 20.9 0.00 0.00 0.00 36 1013.5
20260831230525 37 110 9.7 20.9 0.00 0.00 0.00 37 1013.5
20260831230025 37 131 9.7 19.3 0.00 0.00 0.00 37 1013.5
20260831225504 37 146 8.0 19.3 0.00 0.00 0.00 38 1013.7
20260831225004 37 142 6.4 16.1 0.00 0.00 0.00 38 1013.5
20260831224504 37 144 6.4 12.9 0.00 0.00 0.00 37 1013.6
20260831224004 37 129 6.4 12.9 0.00 0.00 0.00 37 1013.6
20260831223504 37 116 9.7 20.9 0.00 0.00 0.00 37 1013.7
20260831223004 38 117 11.3 20.9 0.00 0.00 0.00 35 1013.7
20260831222525 38 115 11.3 20.9 0.00 0.00 0.00 34 1013.8
20260831222004 38 142 9.7 20.9 0.00 0.00 0.00 34 1013.7
20260831221504 39 171 9.7 19.3 0.00 0.00 0.00 35 1013.7
20260831221004 39 174 9.7 19.3 0.00 0.00 0.00 35 1013.7
20260831220504 39 157 9.7 27.4 0.00 0.00 0.00 34 1013.7
20260831220004 39 147 11.3 27.4 0.00 0.00 0.00 35 1013.8
20260831215525 39 158 9.7 22.5 0.00 0.00 0.00 35 1013.8
20260831215004 39 129 8.0 20.9 0.00 0.00 0.00 35 1013.8
20260831214504 39 128 9.7 20.9 0.00 0.00 0.00 36 1013.9
20260831214004 39 154 9.7 20.9 0.00 0.00 0.00 37 1014.1
20260831213504 39 157 6.4 16.1 0.00 0.00 0.00 34 1014.1
20260831213004 39 142 6.4 20.9 0.00 0.00 0.00 34 1014.2
20260831212504 39 132 8.0 20.9 0.00 0.00 0.00 35 1014.2
20260831212004 39 125 8.0 19.3 0.00 0.00 0.00 35 1014.3
20260831211504 39 126 8.0 19.3 0.00 0.00 0.00 36 1014.4
20260831211004 38 156 6.4 19.3 0.00 0.00 0.00 37 1014.6
20260831210504 38 172 8.0 16.1 0.00 0.00 0.00 36 1014.6
20260831210004 38 151 9.7 25.7 0.00 0.00 0.00 36 1014.5
20260831205504 38 161 9.7 25.7 0.00 0.00 0.00 37 1014.8
20260831205025 38 178 9.7 25.7 0.00 0.00 0.00 37 1014.7
20260831204525 38 160 11.3 25.7 0.00 0.00 0.00 37 1015.0
20260831204025 38 151 11.3 25.7 0.00 0.00 0.00 38 1015.2
20260831203525 38 169 12.9 25.7 0.00 0.00 0.00 37 1015.2
20260831203004 38 189 9.7 22.5 0.00 0.00 0.00 40 1015.3
20260831202503 38 178 11.3 25.7 0.00 0.00 0.00 40 1015.4
20260831202004 38 165 12.9 25.7 0.00 0.00 0.00 37 1015.6
20260831201504 38 149 11.3 25.7 0.00 0.00 0.00 37 1015.7
20260831201025 38 141 11.3 25.7 0.00 0.00 0.00 39 1015.7
20260831200525 38 157 11.3 25.7 0.00 0.00 0.00 39 1015.8
20260831200004 38 144 11.3 25.7 0.00 0.00 0.00 39 1015.8
20260831195504 38 115 9.7 25.7 0.00 0.00 0.00 40 1016.0
20260831195004 37 119 8.0 25.7 0.00 0.00 0.00 40 1016.0
20260831194504 38 133 11.3 29.0 0.00 0.00 0.00 40 1015.9
20260831194004 38 150 12.9 29.0 0.00 0.00 0.00 41 1016.2
20260831193504 38 163 9.7 19.3 0.00 0.00 0.00 40 1016.3
20260831193004 37 124 9.7 20.9 0.00 0.00 0.00 42 1016.2
20260831192504 37 116 11.3 20.9 0.00 0.00 0.00 42 1016.3
20260831192004 37 136 9.7 20.9 0.00 0.00 0.00 41 1016.4
20260831191503 37 129 9.7 19.3 0.00 0.00 0.00 42 1016.5
20260831191004 37 131 9.7 22.5 0.00 0.00 0.00 42 1016.6
20260831190504 37 148 9.7 22.5 0.00 0.00 0.00 43 1016.7
20260831190004 37 136 9.7 22.5 0.00 0.00 0.00 42 1016.6
20260831185504 37 127 9.7 22.5 0.00 0.00 0.00 46 1016.7
20260831185003 36 130 8.0 22.5 0.00 0.00 0.00 46 1016.7
20260831184504 36 109 9.7 27.4 0.00 0.00 0.00 46 1016.8
20260831184004 36 121 8.0 27.4 0.00 0.00 0.00 46 1016.9
20260831183524 36 168 9.7 27.4 0.00 0.00 0.00 47 1016.9
20260831183025 36 177 9.7 27.4 0.00 0.00 0.00 45 1017.0
20260831182503 36 159 9.7 19.3 0.00 0.00 0.00 47 1017.0
20260831182003 36 168 8.0 19.3 0.00 0.00 0.00 48 1017.0
20260831181524 36 177 9.7 20.9 0.00 0.00 0.00 48 1017.0
20260831181003 36 170 9.7 20.9 0.00 0.00 0.00 48 1017.1
20260831180503 35 166 8.0 17.7 0.00 0.00 0.00 48 1017.2
20260831180004 35 158 8.0 17.7 0.00 0.00 0.00 48 1017.3
20260831175503 35 137 11.3 27.4 0.00 0.00 0.00 52 1017.3
20260831175003 35 140 11.3 27.4 0.00 0.00 0.00 51 1017.5
20260831174504 35 164 8.0 25.7 0.00 0.00 0.00 51 1017.5
20260831174004 35 161 9.7 22.5 0.00 0.00 0.00 52 1017.5
20260831173504 35 164 8.0 20.9 0.00 0.00 0.00 51 1017.6
20260831173003 35 178 8.0 20.9 0.00 0.00 0.00 54 1017.5
20260831172504 35 156 9.7 25.7 0.00 0.00 0.00 52 1017.7
20260831172024 34 140 8.0 25.7 0.00 0.00 0.00 53 1017.7
20260831171504 34 147 8.0 17.7 0.00 0.00 0.00 57 1017.8
20260831171025 33 146 9.7 19.3 0.00 0.00 0.00 57 1017.9
20260831170504 33 157 8.0 20.9 0.00 0.00 0.00 57 1018.0
20260831170003 33 176 8.0 20.9 0.00 0.00 0.00 58 1018.0
20260831165504 33 153 8.0 19.3 0.00 0.00 0.00 59 1018.1
20260831165003 32 119 9.7 20.9 0.00 0.00 0.00 60 1018.1
20260831164503 32 140 12.9 20.9 0.00 0.00 0.00 60 1018.1
20260831164003 32 150 12.9 20.9 0.00 0.00 0.00 59 1018.1
20260831163503 32 157 11.3 25.7 0.00 0.00 0.00 61 1017.9
20260831163003 32 180 11.3 25.7 0.00 0.00 0.00 63 1018.0
20260831162504 31 179 9.7 25.7 0.00 0.00 0.00 63 1018.0
20260831162003 31 165 9.7 19.3 0.00 0.00 0.00 66 1018.0
20260831161504 31 167 9.7 19.3 0.00 0.00 0.00 66 1018.0
20260831161003 31 175 9.7 20.9 0.00 0.00 0.00 66 1018.0
20260831160503 31 169 8.0 20.9 0.00 0.00 0.00 66 1017.9
20260831160003 31 163 8.0 22.5 0.00 0.00 0.00 68 1017.9
20260831155503 31 155 9.7 22.5 0.00 0.00 0.00 67 1017.9
20260831155003 31 161 11.3 20.9 0.00 0.00 0.00 67 1017.9
20260831154524 31 165 9.7 25.7 0.00 0.00 0.00 68 1017.9
20260831154003 30 169 9.7 25.7 0.00 0.00 0.00 72 1017.8
20260831153503 30 181 9.7 20.9 0.00 0.00 0.00 72 1017.8
20260831153003 30 175 11.3 25.7 0.00 0.00 0.00 75 1017.7
20260831152503 29 167 11.3 25.7 0.00 0.00 0.00 74 1017.6
20260831152004 29 157 9.7 19.3 0.00 0.00 0.00 75 1017.6
20260831151524 29 164 9.7 19.3 0.00 0.00 0.00 76 1017.7
20260831151025 28 176 11.3 22.5 0.00 0.00 0.00 78 1017.6
20260831150503 28 183 9.7 22.5 0.00 0.00 0.00 78 1017.6
20260831150003 28 198 8.0 19.3 0.00 0.00 0.00 79 1017.6
20260831145503 28 191 9.7 20.9 0.00 0.00 0.00 80 1017.5
20260831145003 28 187 9.7 20.9 0.00 0.00 0.00 80 1017.5
20260831144503 28 190 11.3 22.5 0.00 0.00 0.00 82 1017.5
20260831144003 28 176 9.7 22.5 0.00 0.00 0.00 83 1017.5
20260831143524 27 176 9.7 19.3 0.00 0.00 0.00 85 1017.5
20260831143003 27 179 8.0 19.3 0.00 0.00 0.00 86 1017.4
20260831142503 27 153 8.0 12.9 0.00 0.00 0.00 89 1017.4
20260831142003 26 155 8.0 17.7 0.00 0.00 0.00 90 1017.3
20260831141524 26 159 8.0 17.7 0.00 0.00 0.00 91 1017.3
20260831141024 26 167 8.0 16.1 0.00 0.00 0.00 92 1017.3
20260831140503 26 184 8.0 16.1 0.00 0.00 0.00 92 1017.3
20260831140024 26 193 8.0 16.1 0.00 0.00 0.00 92 1017.2
20260831135503 26 185 8.0 16.1 0.00 0.00 0.00 93 1017.2
20260831135004 26 178 6.4 11.3 0.00 0.00 0.00 93 1017.2
20260831134503 25 185 3.2 11.3 0.00 0.00 0.00 93 1017.1
20260831134024 25 172 3.2 11.3 0.00 0.00 0.00 93 1017.1
20260831133503 25 166 6.4 11.3 0.00 0.00 0.00 93 1017.1
20260831133024 25 170 6.4 11.3 0.00 0.00 0.00 93 1017.1
20260831132503 25 174 6.4 11.3 0.00 0.00 0.00 92 1017.1
20260831132003 24 175 3.2 9.7 0.00 0.00 0.00 92 1017.1
20260831131503 24 171 3.2 8.0 0.00 0.00 0.00 91 1017.0
20260831131004 24 169 3.2 8.0 0.00 0.00 0.00 91 1017.0
20260831130503 23 168 1.6 6.4 0.00 0.00 0.00 90 1017.0
20260831130003 23 168 0.0 6.4 0.00 0.00 0.00 89 1016.9
20260831125503 23 168 0.0 1.6 0.00 0.00 0.00 89 1016.8
20260831125024 23 0 0.0 0.0 0.00 0.00 0.00 89 1016.9
20260831124503 23 0 0.0 0.0 0.00 0.00 0.00 89 1016.8
20260831124003 24 0 0.0 0.0 0.00 0.00 0.00 89 1016.8
20260831123524 24 0 0.0 0.0 0.00 0.00 0.00 89 1016.7
20260831123003 24 0 0.0 0.0 0.00 0.00 0.00 89 1016.6
20260831122503 24 0 0.0 0.0 0.00 0.00 0.00 89 1016.6
20260831122024 24 168 0.0 1.6 0.00 0.00 0.00 89 1016.6
20260831121503 24 168 0.0 1.6 0.00 0.00 0.00 89 1016.6
20260831121003 24 0 0.0 0.0 0.00 0.00 0.00 89 1016.6
20260831120504 24 168 0.0 1.6 0.00 0.00 0.00 89 1016.5
20260831120025 25 168 0.0 1.6 0.00 0.00 0.00 89 1016.5
20260831115504 25 168 0.0 1.6 0.00 0.00 0.00 89 1016.6
20260831115004 25 168 0.0 1.6 0.00 0.00 0.00 89 1016.5
20260831114525 25 168 0.0 3.2 0.00 0.00 0.00 89 1016.5
20260831114025 25 168 0.0 3.2 0.00 0.00 0.00 89 1016.6
20260831113504 25 168 0.0 3.2 0.00 0.00 0.00 89 1016.7
20260831113004 25 168 0.0 3.2 0.00 0.00 0.00 89 1016.5
20260831112504 25 0 0.0 0.0 0.00 0.00 0.00 89 1016.6
20260831112004 25 0 0.0 0.0 0.00 0.00 0.00 89 1016.5
20260831111504 25 0 0.0 0.0 0.00 0.00 0.00 89 1016.5
20260831111004 25 168 0.0 3.2 0.00 0.00 0.00 90 1016.4
20260831110504 25 168 1.6 6.4 0.00 0.00 0.00 90 1016.4
20260831110025 25 168 1.6 6.4 0.00 0.00 0.00 90 1016.4
20260831105504 25 168 1.6 6.4 0.00 0.00 0.00 90 1016.2
20260831105004 25 168 3.2 6.4 0.00 0.00 0.00 90 1016.3
20260831104504 25 168 3.2 8.0 0.00 0.00 0.00 90 1016.3
20260831104004 25 169 3.2 9.7 0.00 0.00 0.00 90 1016.3
20260831103525 25 167 3.2 9.7 0.00 0.00 0.00 90 1016.3
20260831103004 25 165 6.4 11.3 0.00 0.00 0.00 90 1016.3
20260831102504 25 167 6.4 11.3 0.00 0.00 0.00 90 1016.3
20260831102004 25 176 6.4 11.3 0.00 0.00 0.00 89 1016.3
20260831101525 25 175 3.2 11.3 0.00 0.00 0.00 89 1016.3
20260831101004 25 167 3.2 9.7 0.00 0.00 0.00 89 1016.4
20260831100504 25 174 3.2 11.3 0.00 0.00 0.00 89 1016.3
20260831100004 25 176 3.2 11.3 0.00 0.00 0.00 88 1016.4
20260831095504 25 177 3.2 9.7 0.00 0.00 0.00 88 1016.4
20260831095004 25 179 3.2 9.7 0.00 0.00 0.00 88 1016.3
20260831094504 25 182 3.2 9.7 0.00 0.00 0.00 88 1016.3
20260831094004 25 184 3.2 9.7 0.00 0.00 0.00 88 1016.3
20260831093525 25 186 3.2 8.0 0.00 0.00 0.00 87 1016.3
20260831093004 25 188 6.4 11.3 0.00 0.00 0.00 87 1016.3
20260831092504 25 189 6.4 11.3 0.00 0.00 0.00 87 1016.4
20260831092004 26 190 3.2 9.7 0.00 0.00 0.00 87 1016.3
20260831091525 26 195 6.4 9.7 0.00 0.00 0.00 87 1016.3
20260831091025 26 181 6.4 12.9 0.00 0.00 0.00 87 1016.3
20260831090504 26 173 6.4 12.9 0.00 0.00 0.00 87 1016.3
20260831090024 26 183 6.4 11.3 0.00 0.00 0.00 87 1016.4
20260831085504 26 182 6.4 11.3 0.00 0.00 0.00 87 1016.4
20260831085004 26 180 6.4 11.3 0.00 0.00 0.00 87 1016.4
20260831084504 26 183 6.4 11.3 0.00 0.00 0.00 86 1016.3
20260831084004 26 176 6.4 11.3 0.00 0.00 0.00 86 1016.5
20260831083504 26 168 6.4 11.3 0.00 0.00 0.00 86 1016.5
20260831083004 26 154 6.4 9.7 0.00 0.00 0.00 86 1016.6
20260831082504 26 155 6.4 12.9 0.00 0.00 0.00 85 1016.5
20260831082004 26 170 8.0 16.1 0.00 0.00 0.00 85 1016.6
20260831081503 26 174 8.0 16.1 0.00 0.00 0.00 85 1016.7
20260831081025 26 171 8.0 16.1 0.00 0.00 0.00 85 1016.5
20260831080504 26 168 6.4 16.1 0.00 0.00 0.00 85 1016.5
20260831080004 26 159 6.4 11.3 0.00 0.00 0.00 84 1016.6
20260831075503 26 158 6.4 9.7 0.00 0.00 0.00 84 1016.5